Regional Weather Roundup
Issued by NWS Charleston, WV

Home | Current Version | Previous Version | Graphics & Text | Print | Product List | Glossary On
Versions: 1 2 3 4 5 6 7 8 9 10 11 12 13 14 15 16 17 18 19 20 21 22 23 24 25 26 27 28 29 30 31 32 33 34 35 36 37 38 39 40 41 42 43 44 45 46 47 48
000
ASUS41 KRLX 191110
RWRRLX
West Virginia Regional Weather Roundup
National Weather Service Charleston WV
600 AM EST FRI DEC 19 2014

Note: "fair" indicates few or no clouds below 12,000 feet with no
significant weather and/or obstructions to visibility.

WVZ003-191200-
Northern Panhandle of West Virginia

CITY           SKY/WX    TMP DP  RH WIND       PRES   REMARKS
WHEELING       CLOUDY    27  23  85 W6        30.16S
$$

WVZ009-191200-
Northwest West Virginia

CITY           SKY/WX    TMP DP  RH WIND       PRES   REMARKS
PARKERSBURG    CLOUDY    28  22  78 CALM      30.25R
$$

WVZ006-191200-
Western West Virginia

CITY           SKY/WX    TMP DP  RH WIND       PRES   REMARKS
HUNTINGTON     CLOUDY    28  23  81 CALM      30.23R
$$

WVZ015-191200-
West Central West Virginia

CITY           SKY/WX    TMP DP  RH WIND       PRES   REMARKS
CHARLESTON     CLOUDY    28  22  78 CALM      30.22R
$$

WVZ022-031-191200-
North Central West Virginia

CITY           SKY/WX    TMP DP  RH WIND       PRES   REMARKS
CLARKSBURG     CLOUDY    27  21  78 W7        30.19R
MORGANTOWN     CLOUDY    27  19  72 VRB3      30.17S
$$

WVZ025-035-042-045-191200-
Southern West Virginia

CITY           SKY/WX    TMP DP  RH WIND       PRES   REMARKS
BECKLEY        CLOUDY    24  19  81 NW10      30.12R
LOGAN          CLOUDY    28  23  80 NW3       30.18R
BLUEFIELD      CLOUDY    28  22  78 NW7       30.11R
LEWISBURG      MOCLDY    27  22  82 CALM      30.12R
$$

WVZ047-191200-
Northern Mountains of West Virginia

CITY           SKY/WX    TMP DP  RH WIND       PRES   REMARKS
ELKINS         CLOUDY    25  21  85 W5        30.14R
$$

WVZ052-191200-
Eastern Panhandle of West Virginia

CITY           SKY/WX    TMP DP  RH WIND       PRES   REMARKS
MARTINSBURG    CLOUDY    34  19  54 NW9       30.12R
PETERSBURG     MOCLDY    31  22  70 NW3       30.14S
$$



USA.gov is the U.S. government's official web portal to all federal, state and local government web resources and services.